Simultaneous Nadir Overpasses (SNOs) Predictions

Prediction of SNOs between GOES-16 and LANDSAT-8 Satellite Orbit:

Table of predicted SNOs for the next 14.0 days since TLE Epoch: 8/5/2023
Index Date Time (GOES-16) GOES-16 Lat,Lon LANDSAT-8 Lat,Lon Distance(km) Time Diff (sec)
1 08/06/2023 15:15:07 0.00, -75.22 0.06, -75.40 20.10 80
2 08/08/2023 15:00:16 0.00, -75.26 -0.60, -72.44 320.12 80
3 08/09/2023 03:24:20 0.00, -75.25 -0.52, -77.63 270.34 80
4 08/11/2023 03:09:29 0.00, -75.29 0.16, -74.68 70.31 80
5 08/13/2023 02:57:17 0.01, -75.33 0.79, -71.72 411.53 80
6 08/13/2023 15:18:31 -0.01, -75.35 0.33, -76.87 172.16 80
7 08/15/2023 15:06:20 -0.01, -75.40 -0.32, -73.91 170.23 80
8 08/16/2023 03:30:23 0.01, -75.41 -0.77, -79.10 419.47 80
9 08/18/2023 03:18:10 0.00, -75.47 -0.16, -76.13 75.94 80
